APSTAR-9

Last updated on Sat Dec 13 2025 00:02:49 GMT+0000 (Coordinated Universal Time)

1 40982U 15059A 25346.30453265 -.00000255 00000+0 00000+0 0 9992 2 40982 0.0178 333.4256 0003836 259.6038 99.8746 1.00273273 37244
UTC large
Height (km)
Speed (km/s)
/
Latitude / Longitude
Inclination (degrees)
Orbital Period (minutes)
Azimuth
Elevation
Range (km)
Doppler Factor

Next 0 passes for location: London (51.5072 / 0.1276)

Sorry there are no passes over London.